Location: Unspecified
(58.9933°N, 5.6375°E)
Time: 09:09:53
(UTC+02:00)

Cosmos 2058 - Pass Details

Date: 21 January 2018
Orbit: 564 x 584 km, 82.5° (Epoch: 22 May)

Event Time Altitude Azimuth Distance (km) Brightness Sun altitude
Exits shadow 07:14:47 17° 321° (NW) 1,538 4.6 -13.7°
Maximum altitude 07:17:20 30° 270° (W) 1,069 3.7 -13.4°
Drops below altitude 10° 07:21:00 10° 210° (SSW) 1,903 5.4 -12.9°
Sets 07:23:22 0° 199° (SSW) 2,795 6.4 -12.6°
